sat.trackr.live / text

‹ back to catalog

STARLINK-6137

NORAD 57156 · 2023-090BH

PAYLOAD ACTIVE UNKNOWN

§ Identity

Operator
Country
US
Launch date
2023-06-23
Launch site
AFETR
Launch vehicle
Mass (kg)
RCS (m²)

Purposes: comms

External: N2YO · Heavens-Above · Gunter

§ Orbital elements

Epoch: 2026-05-25T03:46:16.820832Z

Period
94.27 min
Inclination
42.9963°
Eccentricity
0.0000635
Mean motion
15.27579666 rev/d
Perigee alt
482.6 km
Apogee alt
483.5 km
Semi-major
6,861.2 km
B*
-2.2605e-5
RAAN
191.8614°
Arg perigee
319.3524°
Mean anomaly
40.7280°
Rev number
16,223

§ Raw data

STARLINK-61371 57156U 23090BH  26145.15713913 -.00000884  00000+0 -22605-4 0  99962 57156  42.9963 191.8614 0000635 319.3524  40.7280 15.27579666162239

JSON: /api/v1/satellites/57156 · /tle

For live sub-satellite position, see the globe view (requires WebGL).

§ Visibility from observer

Set your observer location to see the next 7 days of passes ≥ 10°. The values pass through the URL so the page stays shareable.

No JS? Fill the form by hand. The geolocation button needs JavaScript.